Location: Austin
(30.3000°N, 97.7500°W)
Time: 12:31:11
(UTC-05:00)

Lacrosse 4 Rocket - Pass Details

Date: 08 April 2026
Orbit: 508 x 565 km, 68.0° (Epoch: 11 April)

Event Time Altitude Azimuth Distance (km) Brightness Sun altitude
Rises 20:30:05 0° 334° (NNW) 2,728 5.5 -8.4°
Reaches altitude 10° 20:32:17 10° 332° (NNW) 1,838 4.6 -8.9°
Maximum altitude 20:36:23 70° 249° (WSW) 598 1.7 -9.7°
Drops below altitude 10° 20:40:31 10° 165° (SSE) 1,846 3.7 -10.6°
Sets 20:42:43 0° 163° (SSE) 2,741 4.6 -11.0°
